PAL2531 RJBB-RPLL

Flight info

Callsign PAL2531
Flight time 2h 36m
Altitude 36000
Route TOMOH4 KRE V53 SUC B597 SEPIA Y26 SWANO Y75 ONC Y579 SAKON A582 POLIO
Aircraft A339/H-SADE1E2E3GHIJ3J5M1P2RWXY/LB2D1

Departure

Time 2026-02-22 04:42
Airport Kansai International Airport (RJBB)

Arrival

Time 2026-02-22 07:18
Airport Ninoy Aquino International Airport (RPLL)
Time Latitude Longitude Altitude Speed Heading
2026-02-22 03:58 34.43378 135.24547 17 ft 0 kts 320°
2026-02-22 04:21 34.43375 135.24550 18 ft 2 kts 320°
2026-02-22 04:21 34.43364 135.24562 18 ft 2 kts 308°
2026-02-22 04:22 34.43356 135.24577 18 ft 2 kts 297°
2026-02-22 04:22 34.43350 135.24594 17 ft 2 kts 287°
2026-02-22 04:22 34.43346 135.24612 18 ft 2 kts 276°
2026-02-22 04:22 34.43346 135.24631 18 ft 2 kts 265°
2026-02-22 04:23 34.43348 135.24648 18 ft 2 kts 255°
2026-02-22 04:23 34.43353 135.24666 17 ft 2 kts 244°
2026-02-22 04:23 34.43360 135.24681 18 ft 2 kts 234°
2026-02-22 04:23 34.43365 135.24689 18 ft 0 kts 230°
2026-02-22 04:28 34.43359 135.24681 17 ft 2 kts 230°
2026-02-22 04:29 34.43327 135.24648 17 ft 8 kts 207°
2026-02-22 04:29 34.43267 135.24651 17 ft 9 kts 177°
2026-02-22 04:29 34.43211 135.24608 17 ft 10 kts 227°
2026-02-22 04:29 34.43163 135.24535 17 ft 11 kts 232°
2026-02-22 04:30 34.43110 135.24454 17 ft 12 kts 231°
2026-02-22 04:30 34.43052 135.24365 17 ft 13 kts 230°
2026-02-22 04:30 34.42989 135.24275 17 ft 14 kts 229°
2026-02-22 04:30 34.42924 135.24181 17 ft 15 kts 232°
2026-02-22 04:31 34.42857 135.24078 17 ft 15 kts 231°
2026-02-22 04:31 34.42789 135.23975 17 ft 16 kts 231°
2026-02-22 04:31 34.42718 135.23868 17 ft 16 kts 231°
2026-02-22 04:31 34.42645 135.23761 17 ft 16 kts 230°
2026-02-22 04:32 34.42583 135.23647 17 ft 16 kts 268°
2026-02-22 04:32 34.42637 135.23534 17 ft 16 kts 320°
2026-02-22 04:32 34.42725 135.23445 17 ft 16 kts 320°
2026-02-22 04:32 34.42816 135.23357 17 ft 16 kts 325°
2026-02-22 04:33 34.42909 135.23268 17 ft 17 kts 321°
2026-02-22 04:33 34.43003 135.23177 17 ft 17 kts 321°
2026-02-22 04:33 34.43097 135.23086 17 ft 17 kts 321°
2026-02-22 04:33 34.43191 135.22992 17 ft 17 kts 320°
2026-02-22 04:34 34.43286 135.22897 17 ft 17 kts 321°
2026-02-22 04:34 34.43384 135.22803 17 ft 17 kts 321°
2026-02-22 04:34 34.43480 135.22710 17 ft 17 kts 321°
2026-02-22 04:34 34.43577 135.22613 17 ft 18 kts 321°
2026-02-22 04:35 34.43675 135.22519 17 ft 15 kts 321°
2026-02-22 04:35 34.43735 135.22459 17 ft 11 kts 321°
2026-02-22 04:35 34.43779 135.22407 17 ft 9 kts 294°
2026-02-22 04:35 34.43770 135.22328 17 ft 10 kts 236°
2026-02-22 04:36 34.43720 135.22253 17 ft 11 kts 230°
2026-02-22 04:36 34.43665 135.22171 17 ft 12 kts 230°
2026-02-22 04:36 34.43607 135.22086 17 ft 13 kts 230°
2026-02-22 04:36 34.43544 135.21992 17 ft 14 kts 231°
2026-02-22 04:37 34.43479 135.21895 17 ft 15 kts 231°
2026-02-22 04:37 34.43412 135.21794 17 ft 15 kts 230°
2026-02-22 04:37 34.43342 135.21692 17 ft 16 kts 230°
2026-02-22 04:37 34.43272 135.21584 17 ft 16 kts 231°
2026-02-22 04:38 34.43199 135.21477 17 ft 16 kts 231°
2026-02-22 04:38 34.43125 135.21365 17 ft 17 kts 231°
2026-02-22 04:38 34.43050 135.21254 17 ft 17 kts 231°
2026-02-22 04:38 34.42974 135.21141 17 ft 17 kts 231°
2026-02-22 04:39 34.42897 135.21027 17 ft 17 kts 231°
2026-02-22 04:39 34.42820 135.20912 17 ft 17 kts 231°
2026-02-22 04:39 34.42759 135.20821 17 ft 11 kts 236°
2026-02-22 04:39 34.42755 135.20749 17 ft 7 kts 298°
2026-02-22 04:40 34.42798 135.20700 17 ft 9 kts 323°
2026-02-22 04:40 34.42851 135.20653 17 ft 6 kts 328°
2026-02-22 04:40 34.42889 135.20668 17 ft 6 kts 51°
2026-02-22 04:40 34.42920 135.20714 17 ft 7 kts 51°
2026-02-22 04:41 34.42961 135.20776 17 ft 14 kts 51°
2026-02-22 04:41 34.43148 135.21054 18 ft 76 kts 51°
2026-02-22 04:41 34.43616 135.21755 18 ft 134 kts 51°
2026-02-22 04:41 34.44271 135.22731 229 ft 161 kts 51°
2026-02-22 04:42 34.45002 135.23824 640 ft 175 kts 51°
2026-02-22 04:42 34.45801 135.24974 1241 ft 180 kts 41°
2026-02-22 04:42 34.46900 135.25439 1986 ft 173 kts 352°
2026-02-22 04:42 34.47915 135.24693 2355 ft 184 kts 302°
2026-02-22 04:43 34.48136 135.23149 2667 ft 196 kts 260°
2026-02-22 04:43 34.47711 135.21526 3042 ft 209 kts 254°
2026-02-22 04:43 34.47384 135.19714 3387 ft 227 kts 260°
2026-02-22 04:43 34.47128 135.17758 3756 ft 243 kts 261°
2026-02-22 04:44 34.46880 135.15698 4255 ft 254 kts 262°
2026-02-22 04:44 34.46597 135.13551 4875 ft 262 kts 255°
2026-02-22 04:44 34.45754 135.11618 5598 ft 265 kts 226°
2026-02-22 04:44 34.44265 135.10297 6353 ft 267 kts 208°
2026-02-22 04:45 34.42630 135.09306 7063 ft 270 kts 205°
2026-02-22 04:45 34.40910 135.08330 7787 ft 273 kts 205°
2026-02-22 04:45 34.39206 135.07344 8511 ft 276 kts 206°
2026-02-22 04:45 34.37470 135.06311 9251 ft 279 kts 206°
2026-02-22 04:46 34.35731 135.05258 9980 ft 282 kts 206°
2026-02-22 04:46 34.33970 135.04184 10545 ft 292 kts 206°
2026-02-22 04:46 34.32096 135.03035 10888 ft 310 kts 207°
2026-02-22 04:46 34.30174 135.01721 11195 ft 328 kts 218°
2026-02-22 04:47 34.28599 134.99663 11507 ft 344 kts 233°
2026-02-22 04:47 34.27181 134.97246 11813 ft 361 kts 235°
2026-02-22 04:47 34.25716 134.94694 12259 ft 373 kts 235°
2026-02-22 04:47 34.24220 134.92146 12948 ft 377 kts 234°
2026-02-22 04:48 34.22677 134.89578 13664 ft 380 kts 234°
2026-02-22 04:48 34.21097 134.86993 14351 ft 384 kts 233°
2026-02-22 04:48 34.19490 134.84392 15026 ft 388 kts 233°
2026-02-22 04:48 34.17873 134.81790 15694 ft 392 kts 233°
2026-02-22 04:49 34.16233 134.79164 16346 ft 396 kts 233°
2026-02-22 04:49 34.14554 134.76483 16998 ft 400 kts 233°
2026-02-22 04:49 34.12877 134.73810 17635 ft 404 kts 233°
2026-02-22 04:49 34.11176 134.71104 18264 ft 408 kts 233°
2026-02-22 04:50 34.09477 134.68404 18876 ft 411 kts 233°
2026-02-22 04:50 34.07751 134.65662 19480 ft 415 kts 233°
2026-02-22 04:50 34.05985 134.62860 20074 ft 419 kts 233°
2026-02-22 04:50 34.04234 134.60083 20637 ft 423 kts 233°
2026-02-22 04:51 34.02449 134.57254 21189 ft 426 kts 233°
2026-02-22 04:51 34.00648 134.54405 21740 ft 430 kts 233°
2026-02-22 04:51 33.98821 134.51523 22252 ft 433 kts 233°
2026-02-22 04:51 33.96985 134.48627 22750 ft 437 kts 233°
2026-02-22 04:52 33.93269 134.42766 23718 ft 443 kts 233°
2026-02-22 04:52 33.91405 134.39830 24175 ft 447 kts 233°
2026-02-22 04:52 33.89502 134.36833 24625 ft 450 kts 233°
2026-02-22 04:53 33.87606 134.33850 25059 ft 453 kts 232°
2026-02-22 04:53 33.85680 134.30820 25485 ft 456 kts 232°
2026-02-22 04:53 33.83739 134.27771 25900 ft 459 kts 232°
2026-02-22 04:53 33.81797 134.24724 26301 ft 462 kts 232°
2026-02-22 04:54 33.79853 134.21674 26688 ft 465 kts 232°
2026-02-22 04:54 33.77875 134.18573 27068 ft 468 kts 232°
2026-02-22 04:54 33.75889 134.15463 27467 ft 470 kts 232°
2026-02-22 04:54 33.73919 134.12381 27985 ft 469 kts 232°
2026-02-22 04:55 33.71914 134.09247 28535 ft 467 kts 232°
2026-02-22 04:55 33.69947 134.06175 29041 ft 466 kts 232°
2026-02-22 04:55 33.67976 134.03098 29521 ft 465 kts 232°
2026-02-22 04:55 33.66021 134.00049 29985 ft 465 kts 232°
2026-02-22 04:56 33.64054 133.96985 30445 ft 464 kts 232°
2026-02-22 04:56 33.62064 133.93889 30903 ft 463 kts 232°
2026-02-22 04:56 33.60109 133.90848 31344 ft 462 kts 232°
2026-02-22 04:56 33.58162 133.87823 31774 ft 462 kts 232°
2026-02-22 04:57 33.56188 133.84757 32202 ft 461 kts 232°
2026-02-22 04:57 33.54244 133.81741 32615 ft 461 kts 232°
2026-02-22 04:57 33.52286 133.78706 33022 ft 460 kts 232°
2026-02-22 04:57 33.50315 133.75655 33423 ft 459 kts 232°
2026-02-22 04:58 33.48361 133.72630 33810 ft 459 kts 232°
2026-02-22 04:58 33.46420 133.69629 34187 ft 458 kts 232°
2026-02-22 04:58 33.44480 133.66632 34525 ft 459 kts 232°
2026-02-22 04:58 33.42524 133.63614 34815 ft 460 kts 232°
2026-02-22 04:59 33.40562 133.60588 35086 ft 461 kts 232°
2026-02-22 04:59 33.38571 133.57532 35360 ft 463 kts 231°
2026-02-22 04:59 33.36509 133.54587 35626 ft 464 kts 229°
2026-02-22 04:59 33.34310 133.51764 35887 ft 465 kts 225°
2026-02-22 05:00 33.31984 133.49089 36009 ft 467 kts 222°
2026-02-22 05:00 33.26947 133.44212 36015 ft 467 kts 216°
2026-02-22 05:01 33.21714 133.39668 36016 ft 467 kts 216°
2026-02-22 05:01 33.16453 133.35100 36022 ft 467 kts 216°
2026-02-22 05:02 33.11230 133.30556 36018 ft 467 kts 216°
2026-02-22 05:02 33.05962 133.25972 36016 ft 467 kts 216°
2026-02-22 05:03 33.00732 133.21419 36016 ft 467 kts 216°
2026-02-22 05:03 32.95477 133.16853 36016 ft 467 kts 216°
2026-02-22 05:04 32.90255 133.12321 36016 ft 467 kts 216°
2026-02-22 05:04 32.84992 133.07764 36016 ft 467 kts 216°
2026-02-22 05:05 32.79763 133.03241 36016 ft 467 kts 216°
2026-02-22 05:05 32.74532 132.98618 36016 ft 467 kts 219°
2026-02-22 05:06 32.69482 132.93777 36016 ft 467 kts 219°
2026-02-22 05:06 32.64433 132.88930 36016 ft 467 kts 219°
2026-02-22 05:07 32.59378 132.84091 36016 ft 467 kts 219°
2026-02-22 05:07 32.54349 132.79285 36016 ft 467 kts 219°
2026-02-22 05:08 32.49307 132.74474 36016 ft 467 kts 219°
2026-02-22 05:08 32.44221 132.69629 36016 ft 467 kts 219°
2026-02-22 05:09 32.39193 132.64848 36016 ft 467 kts 219°
2026-02-22 05:09 32.34108 132.60019 36016 ft 467 kts 219°
2026-02-22 05:10 32.29046 132.55219 36016 ft 467 kts 219°
2026-02-22 05:10 32.23998 132.50439 36017 ft 467 kts 219°
2026-02-22 05:11 32.18941 132.45659 36017 ft 467 kts 219°
2026-02-22 05:11 32.13879 132.40880 36017 ft 467 kts 219°
2026-02-22 05:12 32.08808 132.36105 36017 ft 467 kts 219°
2026-02-22 05:12 32.03708 132.31316 36016 ft 467 kts 218°
2026-02-22 05:13 31.98596 132.26524 36016 ft 467 kts 218°
2026-02-22 05:13 31.93510 132.21764 36016 ft 467 kts 218°
2026-02-22 05:14 31.88455 132.17029 36016 ft 467 kts 218°
2026-02-22 05:14 31.83379 132.12277 36016 ft 467 kts 218°
2026-02-22 05:15 31.78300 132.07532 36016 ft 467 kts 218°
2026-02-22 05:15 31.73240 132.02811 36016 ft 467 kts 218°
2026-02-22 05:16 31.68096 131.98177 36016 ft 467 kts 215°
2026-02-22 05:16 31.21180 131.60347 36005 ft 467 kts 215°
2026-02-22 05:17 30.35387 130.92001 36044 ft 467 kts 214°
2026-02-22 05:17 29.49380 130.24973 36044 ft 467 kts 214°
2026-02-22 05:18 28.63205 129.59210 36041 ft 467 kts 214°
2026-02-22 05:18 27.82453 128.98776 36020 ft 467 kts 213°
2026-02-22 05:19 27.77013 128.94745 36098 ft 473 kts 213°
2026-02-22 05:19 27.74273 128.92717 36308 ft 475 kts 213°
2026-02-22 05:19 27.71507 128.90671 36595 ft 475 kts 213°
2026-02-22 05:19 27.68753 128.88634 36890 ft 474 kts 213°
2026-02-22 05:20 27.66001 128.86600 37173 ft 474 kts 213°
2026-02-22 05:20 27.63242 128.84563 37444 ft 474 kts 213°
2026-02-22 05:20 27.60519 128.82553 37702 ft 474 kts 213°
2026-02-22 05:20 27.57778 128.80531 37943 ft 474 kts 213°
2026-02-22 05:21 27.54990 128.78477 38012 ft 475 kts 213°
2026-02-22 05:21 27.49489 128.74428 38018 ft 474 kts 213°
2026-02-22 05:22 27.43976 128.70372 38019 ft 474 kts 213°
2026-02-22 05:22 27.38447 128.66379 38019 ft 474 kts 212°
2026-02-22 05:23 27.32896 128.62422 38020 ft 474 kts 212°
2026-02-22 05:23 27.27339 128.58462 38020 ft 474 kts 212°
2026-02-22 05:24 27.21769 128.54494 38018 ft 474 kts 212°
2026-02-22 05:24 27.16223 128.50546 38018 ft 474 kts 212°
2026-02-22 05:25 27.10672 128.46599 38018 ft 475 kts 212°
2026-02-22 05:25 27.05119 128.42654 38018 ft 475 kts 212°
2026-02-22 05:26 26.99566 128.38716 38018 ft 475 kts 212°
2026-02-22 05:26 26.94009 128.34778 38019 ft 475 kts 212°
2026-02-22 05:27 26.88413 128.30818 38019 ft 475 kts 212°
2026-02-22 05:27 26.82852 128.26888 38019 ft 475 kts 212°
2026-02-22 05:28 26.77292 128.22963 38019 ft 475 kts 212°
2026-02-22 05:28 26.71689 128.19012 38019 ft 475 kts 212°
2026-02-22 05:29 26.66127 128.15096 38019 ft 475 kts 212°
2026-02-22 05:29 26.60564 128.11182 38019 ft 475 kts 212°
2026-02-22 05:30 26.54996 128.07269 38019 ft 475 kts 212°
2026-02-22 05:30 26.49410 128.03348 38019 ft 475 kts 212°
2026-02-22 05:31 26.43825 127.99433 38019 ft 475 kts 212°
2026-02-22 05:31 26.38218 127.95507 38019 ft 475 kts 212°
2026-02-22 05:32 26.32640 127.91606 38019 ft 475 kts 212°
2026-02-22 05:32 26.27034 127.87691 38019 ft 475 kts 212°
2026-02-22 05:33 26.21456 127.83800 38019 ft 475 kts 212°
2026-02-22 05:33 26.15832 127.79999 38018 ft 475 kts 209°
2026-02-22 05:34 26.09983 127.76682 38019 ft 475 kts 206°
2026-02-22 05:34 26.04039 127.73423 38019 ft 475 kts 206°
2026-02-22 05:35 25.98128 127.70182 38019 ft 475 kts 206°
2026-02-22 05:35 25.92216 127.66941 38019 ft 475 kts 206°
2026-02-22 05:36 25.86338 127.63721 38019 ft 475 kts 206°
2026-02-22 05:36 25.80420 127.60482 38019 ft 475 kts 206°
2026-02-22 05:37 25.74493 127.57241 38019 ft 475 kts 206°
2026-02-22 05:37 25.68560 127.54000 38019 ft 475 kts 206°
2026-02-22 05:38 25.62657 127.50780 38019 ft 475 kts 206°
2026-02-22 05:38 25.13231 127.23949 38047 ft 475 kts 206°
2026-02-22 05:39 24.34237 126.81571 38023 ft 475 kts 206°
2026-02-22 05:39 24.28287 126.78404 38020 ft 475 kts 206°
2026-02-22 05:40 24.22372 126.75258 38019 ft 475 kts 206°
2026-02-22 05:40 24.16463 126.72119 38019 ft 475 kts 206°
2026-02-22 05:41 24.10495 126.69056 38019 ft 475 kts 203°
2026-02-22 05:41 24.04419 126.66222 38019 ft 475 kts 203°
2026-02-22 05:42 23.98301 126.63383 38019 ft 475 kts 203°
2026-02-22 05:42 23.89206 126.59163 38019 ft 475 kts 203°
2026-02-22 05:43 23.83143 126.56352 38019 ft 475 kts 203°
2026-02-22 05:43 23.77064 126.53537 38019 ft 475 kts 203°
2026-02-22 05:44 23.70962 126.50714 38019 ft 475 kts 203°
2026-02-22 05:44 23.64878 126.47901 38019 ft 475 kts 203°
2026-02-22 05:45 23.58815 126.45101 38019 ft 475 kts 203°
2026-02-22 05:45 23.52745 126.42301 38019 ft 475 kts 203°
2026-02-22 05:46 23.46683 126.39507 38019 ft 475 kts 203°
2026-02-22 05:46 23.40596 126.36704 38019 ft 475 kts 203°
2026-02-22 05:47 23.34542 126.33920 38019 ft 475 kts 202°
2026-02-22 05:47 23.28379 126.31088 38019 ft 475 kts 202°
2026-02-22 05:48 23.22263 126.28281 38019 ft 475 kts 202°
2026-02-22 05:48 23.16196 126.25499 38019 ft 475 kts 202°
2026-02-22 05:49 23.10127 126.22719 38019 ft 475 kts 202°
2026-02-22 05:49 23.04058 126.19941 38019 ft 475 kts 202°
2026-02-22 05:50 22.97977 126.17161 38019 ft 475 kts 202°
2026-02-22 05:50 22.91904 126.14387 38019 ft 475 kts 202°
2026-02-22 05:51 22.85844 126.11591 38019 ft 475 kts 203°
2026-02-22 05:51 22.79787 126.08779 38019 ft 475 kts 203°
2026-02-22 05:52 22.73751 126.05982 38019 ft 475 kts 203°
2026-02-22 05:52 22.67671 126.03169 38019 ft 475 kts 203°
2026-02-22 05:53 22.61642 126.00383 38019 ft 475 kts 203°
2026-02-22 05:53 22.55547 125.97569 38019 ft 475 kts 203°
2026-02-22 05:54 22.49507 125.94785 38019 ft 475 kts 203°
2026-02-22 05:54 22.43443 125.91990 38019 ft 475 kts 203°
2026-02-22 05:55 22.37379 125.89199 38019 ft 475 kts 203°
2026-02-22 05:55 22.31338 125.86420 38019 ft 475 kts 203°
2026-02-22 05:56 22.25264 125.83630 38019 ft 475 kts 203°
2026-02-22 05:56 22.19186 125.80841 38019 ft 475 kts 203°
2026-02-22 05:57 22.13145 125.78070 38019 ft 475 kts 203°
2026-02-22 05:57 22.07083 125.75294 38019 ft 475 kts 203°
2026-02-22 05:58 22.01013 125.72515 38019 ft 475 kts 203°
2026-02-22 05:58 21.94939 125.69738 38019 ft 475 kts 203°
2026-02-22 05:59 21.88891 125.66974 38019 ft 475 kts 203°
2026-02-22 05:59 21.82801 125.64195 38019 ft 475 kts 203°
2026-02-22 06:00 21.76753 125.61438 38019 ft 475 kts 203°
2026-02-22 06:00 21.70671 125.58667 38019 ft 475 kts 203°
2026-02-22 06:01 21.64632 125.55918 38019 ft 475 kts 203°
2026-02-22 06:01 21.58539 125.53147 38019 ft 475 kts 203°
2026-02-22 06:02 21.52473 125.50391 38019 ft 475 kts 203°
2026-02-22 06:02 21.46419 125.47643 38019 ft 475 kts 203°
2026-02-22 06:03 21.40366 125.44898 38019 ft 475 kts 203°
2026-02-22 06:03 21.34293 125.42146 38019 ft 475 kts 203°
2026-02-22 06:04 21.28215 125.39394 38019 ft 475 kts 203°
2026-02-22 06:04 21.22149 125.36651 38019 ft 475 kts 203°
2026-02-22 06:05 21.16093 125.33914 38019 ft 475 kts 202°
2026-02-22 06:05 21.09996 125.31162 38019 ft 475 kts 202°
2026-02-22 06:06 21.03960 125.28439 38019 ft 475 kts 202°
2026-02-22 06:06 20.97951 125.25459 38018 ft 475 kts 207°
2026-02-22 06:07 20.92193 125.22122 38019 ft 475 kts 208°
2026-02-22 06:07 20.86407 125.18748 38019 ft 475 kts 208°
2026-02-22 06:08 20.80625 125.15382 38019 ft 475 kts 208°
2026-02-22 06:08 20.74810 125.12005 38019 ft 475 kts 208°
2026-02-22 06:09 20.69039 125.08657 38019 ft 475 kts 208°
2026-02-22 06:09 20.63256 125.05306 38019 ft 475 kts 208°
2026-02-22 06:10 20.57478 125.01960 38019 ft 475 kts 208°
2026-02-22 06:10 20.51665 124.98597 38019 ft 475 kts 208°
2026-02-22 06:11 20.45874 124.95250 38019 ft 475 kts 208°
2026-02-22 06:11 20.40094 124.91912 38019 ft 475 kts 208°
2026-02-22 06:12 20.34250 124.88540 38019 ft 475 kts 208°
2026-02-22 06:12 20.28453 124.85198 38019 ft 475 kts 208°
2026-02-22 06:13 20.22640 124.81850 38019 ft 475 kts 208°
2026-02-22 06:13 20.16871 124.78530 38019 ft 475 kts 208°
2026-02-22 06:14 20.11083 124.75201 38019 ft 475 kts 208°
2026-02-22 06:14 20.05284 124.71870 38019 ft 475 kts 208°
2026-02-22 06:15 19.99462 124.68527 38019 ft 475 kts 208°
2026-02-22 06:15 19.93679 124.65211 38019 ft 475 kts 208°
2026-02-22 06:16 19.87843 124.61865 38019 ft 475 kts 208°
2026-02-22 06:16 19.81959 124.58497 38019 ft 475 kts 208°
2026-02-22 06:17 19.76062 124.55123 38019 ft 475 kts 208°
2026-02-22 06:17 19.70274 124.51815 38019 ft 475 kts 208°
2026-02-22 06:18 19.64470 124.48500 38019 ft 475 kts 208°
2026-02-22 06:18 19.58641 124.45174 38019 ft 475 kts 208°
2026-02-22 06:19 19.52846 124.41869 38019 ft 475 kts 208°
2026-02-22 06:19 19.47029 124.38555 38019 ft 475 kts 208°
2026-02-22 06:20 19.41230 124.35253 38019 ft 475 kts 208°
2026-02-22 06:20 19.35449 124.31965 38019 ft 475 kts 208°
2026-02-22 06:21 19.29633 124.28660 38019 ft 475 kts 208°
2026-02-22 06:21 19.23809 124.25352 38019 ft 475 kts 208°
2026-02-22 06:22 19.18016 124.22066 38019 ft 475 kts 208°
2026-02-22 06:22 19.12194 124.18765 38019 ft 475 kts 208°
2026-02-22 06:23 19.06397 124.15481 38019 ft 475 kts 208°
2026-02-22 06:23 19.00607 124.12203 38019 ft 475 kts 208°
2026-02-22 06:24 18.94797 124.08917 38019 ft 475 kts 208°
2026-02-22 06:24 18.88967 124.05622 38019 ft 475 kts 208°
2026-02-22 06:25 18.83145 124.02335 38019 ft 475 kts 208°
2026-02-22 06:25 18.77367 123.99074 38019 ft 475 kts 208°
2026-02-22 06:26 18.71542 123.95789 38019 ft 475 kts 208°
2026-02-22 06:26 18.65737 123.92519 38019 ft 475 kts 208°
2026-02-22 06:27 18.59899 123.89233 38019 ft 475 kts 208°
2026-02-22 06:27 18.54098 123.85970 38019 ft 475 kts 208°
2026-02-22 06:28 18.48279 123.82699 38019 ft 475 kts 208°
2026-02-22 06:28 18.42474 123.79439 38019 ft 475 kts 208°
2026-02-22 06:29 18.36669 123.76181 38019 ft 475 kts 208°
2026-02-22 06:29 18.30830 123.72907 38019 ft 475 kts 208°
2026-02-22 06:30 18.25012 123.69647 38019 ft 475 kts 208°
2026-02-22 06:30 18.19223 123.66406 38019 ft 475 kts 208°
2026-02-22 06:31 18.13376 123.63135 38019 ft 475 kts 208°
2026-02-22 06:31 18.07540 123.59872 38019 ft 475 kts 208°
2026-02-22 06:32 18.01700 123.56609 38019 ft 475 kts 208°
2026-02-22 06:32 17.95715 123.53268 38019 ft 475 kts 208°
2026-02-22 06:33 17.03510 123.02119 38026 ft 475 kts 208°
2026-02-22 06:33 16.81747 122.90133 37808 ft 475 kts 208°
2026-02-22 06:34 16.78809 122.88517 37557 ft 473 kts 208°
2026-02-22 06:34 16.75922 122.86931 37308 ft 470 kts 208°
2026-02-22 06:34 16.73049 122.85352 37057 ft 467 kts 208°
2026-02-22 06:34 16.70209 122.83791 36810 ft 464 kts 208°
2026-02-22 06:35 16.67378 122.82237 36564 ft 464 kts 208°
2026-02-22 06:35 16.64524 122.80670 36315 ft 464 kts 208°
2026-02-22 06:35 16.61688 122.79114 36068 ft 464 kts 208°
2026-02-22 06:35 16.58852 122.77557 35820 ft 464 kts 208°
2026-02-22 06:36 16.55986 122.75986 35571 ft 464 kts 208°
2026-02-22 06:36 16.53155 122.74434 35324 ft 464 kts 208°
2026-02-22 06:36 16.50293 122.72865 35075 ft 465 kts 208°
2026-02-22 06:36 16.47454 122.71310 34828 ft 465 kts 208°
2026-02-22 06:37 16.44587 122.69740 34578 ft 465 kts 208°
2026-02-22 06:37 16.41725 122.68173 34330 ft 466 kts 208°
2026-02-22 06:37 16.38865 122.66607 34082 ft 466 kts 208°
2026-02-22 06:37 16.36035 122.65058 33836 ft 467 kts 208°
2026-02-22 06:38 16.33173 122.63492 33588 ft 467 kts 208°
2026-02-22 06:38 16.30299 122.61920 33339 ft 467 kts 208°
2026-02-22 06:38 16.27438 122.60356 33091 ft 468 kts 208°
2026-02-22 06:38 16.24528 122.58766 32840 ft 468 kts 208°
2026-02-22 06:39 16.21678 122.57209 32594 ft 468 kts 208°
2026-02-22 06:39 16.18807 122.55641 32346 ft 469 kts 208°
2026-02-22 06:39 16.15923 122.54067 32097 ft 469 kts 208°
2026-02-22 06:39 16.13036 122.52491 31848 ft 470 kts 208°
2026-02-22 06:40 16.10162 122.50923 31601 ft 470 kts 208°
2026-02-22 06:40 16.07248 122.49334 31350 ft 470 kts 208°
2026-02-22 06:40 16.04391 122.47777 31107 ft 471 kts 208°
2026-02-22 06:40 16.01484 122.46192 30857 ft 471 kts 208°
2026-02-22 06:41 15.98582 122.44611 30608 ft 471 kts 208°
2026-02-22 06:41 15.95706 122.43044 30361 ft 472 kts 208°
2026-02-22 06:41 15.92807 122.41466 30078 ft 472 kts 208°
2026-02-22 06:41 15.89898 122.39883 29652 ft 473 kts 208°
2026-02-22 06:42 15.86971 122.38290 29066 ft 474 kts 207°
2026-02-22 06:42 15.84061 122.36707 28388 ft 474 kts 207°
2026-02-22 06:42 15.81131 122.35114 27688 ft 474 kts 207°
2026-02-22 06:42 15.78242 122.33545 27214 ft 468 kts 207°
2026-02-22 06:43 15.75342 122.31969 26677 ft 463 kts 207°
2026-02-22 06:43 15.72437 122.30390 26170 ft 458 kts 207°
2026-02-22 06:43 15.69568 122.28832 25684 ft 453 kts 207°
2026-02-22 06:43 15.66784 122.27321 25218 ft 448 kts 207°
2026-02-22 06:44 15.64040 122.25832 24760 ft 443 kts 207°
2026-02-22 06:44 15.61319 122.24356 24304 ft 438 kts 207°
2026-02-22 06:44 15.58657 122.22913 23854 ft 434 kts 207°
2026-02-22 06:44 15.55977 122.21459 23399 ft 430 kts 207°
2026-02-22 06:45 15.53368 122.20045 22952 ft 426 kts 207°
2026-02-22 06:45 15.50771 122.18638 22506 ft 422 kts 207°
2026-02-22 06:45 15.48173 122.17230 22056 ft 418 kts 207°
2026-02-22 06:45 15.45632 122.15854 21614 ft 415 kts 207°
2026-02-22 06:46 15.43055 122.14459 21162 ft 411 kts 207°
2026-02-22 06:46 15.40563 122.13110 20725 ft 408 kts 207°
2026-02-22 06:46 15.38048 122.11749 20279 ft 405 kts 207°
2026-02-22 06:47 15.33103 122.09075 19399 ft 399 kts 207°
2026-02-22 06:47 15.30654 122.07751 18961 ft 396 kts 207°
2026-02-22 06:47 15.28236 122.06444 18523 ft 394 kts 207°
2026-02-22 06:47 15.25801 122.05128 18082 ft 391 kts 207°
2026-02-22 06:48 15.23400 122.03831 17645 ft 389 kts 207°
2026-02-22 06:48 15.21044 122.02558 17215 ft 386 kts 207°
2026-02-22 06:48 15.18672 122.01277 16824 ft 382 kts 207°
2026-02-22 06:48 15.16347 122.00023 16677 ft 370 kts 207°
2026-02-22 06:49 15.14117 121.98819 16563 ft 359 kts 207°
2026-02-22 06:49 15.11933 121.97641 16446 ft 348 kts 207°
2026-02-22 06:49 15.09823 121.96503 16343 ft 337 kts 207°
2026-02-22 06:49 15.07796 121.95410 16251 ft 326 kts 207°
2026-02-22 06:50 15.05815 121.94342 16174 ft 316 kts 207°
2026-02-22 06:50 15.03905 121.93312 16111 ft 305 kts 207°
2026-02-22 06:50 15.02165 121.92104 16024 ft 296 kts 225°
2026-02-22 06:50 15.01021 121.90372 15984 ft 299 kts 248°
2026-02-22 06:51 15.00572 121.88238 16006 ft 308 kts 265°
2026-02-22 06:51 15.00433 121.85998 16009 ft 310 kts 267°
2026-02-22 06:51 15.00333 121.83800 16008 ft 310 kts 267°
2026-02-22 06:51 15.00230 121.81559 16007 ft 310 kts 267°
2026-02-22 06:52 15.00121 121.79336 16007 ft 310 kts 267°
2026-02-22 06:52 15.00006 121.77105 16007 ft 310 kts 267°
2026-02-22 06:52 14.99888 121.74878 16007 ft 310 kts 266°
2026-02-22 06:52 14.99767 121.72650 16007 ft 310 kts 266°
2026-02-22 06:53 14.99645 121.70446 16007 ft 310 kts 266°
2026-02-22 06:53 14.99521 121.68196 16007 ft 310 kts 266°
2026-02-22 06:53 14.99397 121.65979 16006 ft 310 kts 266°
2026-02-22 06:53 14.99273 121.63760 16006 ft 310 kts 266°
2026-02-22 06:54 14.99147 121.61517 16006 ft 310 kts 266°
2026-02-22 06:54 14.99021 121.59287 16006 ft 310 kts 266°
2026-02-22 06:54 14.98896 121.57066 16006 ft 310 kts 266°
2026-02-22 06:54 14.98771 121.54855 16006 ft 310 kts 266°
2026-02-22 06:55 14.98644 121.52612 16006 ft 310 kts 266°
2026-02-22 06:55 14.98517 121.50384 16006 ft 310 kts 266°
2026-02-22 06:55 14.98391 121.48164 16006 ft 310 kts 266°
2026-02-22 06:55 14.98265 121.45946 16006 ft 310 kts 266°
2026-02-22 06:56 14.98137 121.43707 16006 ft 310 kts 266°
2026-02-22 06:56 14.98011 121.41499 16006 ft 310 kts 266°
2026-02-22 06:56 14.97883 121.39265 16005 ft 310 kts 266°
2026-02-22 06:56 14.97755 121.37027 16005 ft 310 kts 266°
2026-02-22 06:57 14.97627 121.34801 16005 ft 310 kts 266°
2026-02-22 06:57 14.97499 121.32581 16004 ft 310 kts 266°
2026-02-22 06:57 14.97371 121.30364 16004 ft 310 kts 266°
2026-02-22 06:57 14.97242 121.28127 16003 ft 310 kts 266°
2026-02-22 06:58 14.97112 121.25887 16001 ft 310 kts 266°
2026-02-22 06:58 14.96984 121.23686 15997 ft 310 kts 266°
2026-02-22 06:58 14.96854 121.21443 15969 ft 310 kts 266°
2026-02-22 06:58 14.96724 121.19205 15671 ft 312 kts 266°
2026-02-22 06:59 14.96595 121.16985 15352 ft 311 kts 266°
2026-02-22 06:59 14.96466 121.14762 15051 ft 309 kts 266°
2026-02-22 06:59 14.96336 121.12553 14759 ft 307 kts 266°
2026-02-22 06:59 14.96208 121.10362 14472 ft 305 kts 266°
2026-02-22 07:00 14.96082 121.08196 14189 ft 302 kts 266°
2026-02-22 07:00 14.95955 121.06033 13906 ft 300 kts 266°
2026-02-22 07:00 14.95829 121.03888 13626 ft 298 kts 266°
2026-02-22 07:00 14.95703 121.01749 13346 ft 296 kts 266°
2026-02-22 07:01 14.95578 120.99627 13069 ft 295 kts 266°
2026-02-22 07:01 14.95453 120.97523 12793 ft 293 kts 266°
2026-02-22 07:01 14.95329 120.95417 12516 ft 291 kts 266°
2026-02-22 07:01 14.95206 120.93349 12244 ft 289 kts 266°
2026-02-22 07:02 14.95084 120.91283 11963 ft 288 kts 266°
2026-02-22 07:02 14.94960 120.89208 11685 ft 286 kts 266°
2026-02-22 07:02 14.94839 120.87161 11413 ft 285 kts 266°
2026-02-22 07:02 14.94718 120.85134 11146 ft 283 kts 266°
2026-02-22 07:03 14.94467 120.83135 10857 ft 282 kts 251°
2026-02-22 07:03 14.93492 120.81399 10569 ft 280 kts 225°
2026-02-22 07:03 14.91899 120.80275 10296 ft 279 kts 203°
2026-02-22 07:03 14.90111 120.79552 10036 ft 277 kts 200°
2026-02-22 07:04 14.88307 120.78874 9770 ft 276 kts 200°
2026-02-22 07:04 14.86494 120.78194 9505 ft 274 kts 200°
2026-02-22 07:04 14.84724 120.77521 9246 ft 273 kts 200°
2026-02-22 07:04 14.82941 120.76836 8984 ft 272 kts 200°
2026-02-22 07:05 14.81188 120.76157 8727 ft 271 kts 200°
2026-02-22 07:05 14.79426 120.75474 8468 ft 270 kts 200°
2026-02-22 07:05 14.77670 120.74790 8210 ft 268 kts 200°
2026-02-22 07:05 14.75927 120.74112 7953 ft 267 kts 200°
2026-02-22 07:06 14.74213 120.73444 7700 ft 266 kts 200°
2026-02-22 07:06 14.72484 120.72771 7445 ft 265 kts 200°
2026-02-22 07:06 14.70761 120.72100 7191 ft 264 kts 200°
2026-02-22 07:06 14.69043 120.71431 6937 ft 263 kts 200°
2026-02-22 07:07 14.67320 120.70760 6682 ft 263 kts 200°
2026-02-22 07:07 14.65618 120.70098 6431 ft 262 kts 200°
2026-02-22 07:07 14.63930 120.69441 6277 ft 257 kts 200°
2026-02-22 07:07 14.62269 120.68900 6257 ft 247 kts 186°
2026-02-22 07:08 14.60603 120.69122 6143 ft 240 kts 156°
2026-02-22 07:08 14.59141 120.69905 5913 ft 240 kts 150°
2026-02-22 07:08 14.57696 120.70783 5680 ft 240 kts 149°
2026-02-22 07:08 14.56256 120.71661 5453 ft 239 kts 149°
2026-02-22 07:09 14.54831 120.72517 5235 ft 236 kts 150°
2026-02-22 07:09 14.53419 120.73354 5154 ft 226 kts 150°
2026-02-22 07:09 14.52097 120.74136 5142 ft 212 kts 150°
2026-02-22 07:09 14.50853 120.74873 5137 ft 201 kts 150°
2026-02-22 07:10 14.49692 120.75561 5101 ft 190 kts 150°
2026-02-22 07:10 14.48554 120.76234 4911 ft 185 kts 150°
2026-02-22 07:10 14.47443 120.76892 4704 ft 182 kts 150°
2026-02-22 07:10 14.46367 120.77528 4506 ft 178 kts 150°
2026-02-22 07:11 14.45304 120.78156 4312 ft 175 kts 150°
2026-02-22 07:11 14.44260 120.78774 4123 ft 171 kts 150°
2026-02-22 07:11 14.43237 120.79379 3938 ft 168 kts 150°
2026-02-22 07:11 14.42222 120.79980 3748 ft 165 kts 150°
2026-02-22 07:12 14.41259 120.80604 3535 ft 164 kts 138°
2026-02-22 07:12 14.40591 120.81545 3305 ft 164 kts 111°
2026-02-22 07:12 14.40499 120.82700 3162 ft 161 kts 79°
2026-02-22 07:12 14.40840 120.83804 3167 ft 163 kts 66°
2026-02-22 07:13 14.41353 120.84866 3160 ft 164 kts 61°
2026-02-22 07:13 14.41910 120.85878 3143 ft 164 kts 60°
2026-02-22 07:13 14.42490 120.86904 2953 ft 164 kts 60°
2026-02-22 07:13 14.43070 120.87933 2734 ft 164 kts 60°
2026-02-22 07:14 14.43639 120.88949 2519 ft 164 kts 60°
2026-02-22 07:14 14.44197 120.89951 2304 ft 157 kts 60°
2026-02-22 07:14 14.44727 120.90906 2085 ft 149 kts 60°
2026-02-22 07:14 14.45230 120.91812 1884 ft 141 kts 60°
2026-02-22 07:15 14.45706 120.92669 1710 ft 139 kts 60°
2026-02-22 07:15 14.46192 120.93545 1537 ft 139 kts 60°
2026-02-22 07:15 14.46670 120.94405 1360 ft 139 kts 60°
2026-02-22 07:15 14.47146 120.95262 1180 ft 138 kts 60°
2026-02-22 07:16 14.47626 120.96127 993 ft 138 kts 60°
2026-02-22 07:16 14.48104 120.96987 805 ft 137 kts 60°
2026-02-22 07:16 14.48583 120.97849 617 ft 137 kts 60°
2026-02-22 07:16 14.49061 120.98702 458 ft 137 kts 60°
2026-02-22 07:17 14.49539 120.99560 261 ft 136 kts 60°
2026-02-22 07:17 14.50005 121.00404 104 ft 132 kts 60°
2026-02-22 07:17 14.50407 121.01136 93 ft 98 kts 60°
2026-02-22 07:17 14.50672 121.01611 93 ft 55 kts 60°
2026-02-22 07:18 14.50856 121.01942 93 ft 47 kts 60°
2026-02-22 07:18 14.51010 121.02181 93 ft 36 kts 42°
2026-02-22 07:18 14.51148 121.02297 93 ft 10 kts 15°
2026-02-22 07:18 14.51191 121.02262 93 ft 10 kts 261°
2026-02-22 07:19 14.51155 121.02191 93 ft 11 kts 239°
2026-02-22 07:19 14.51112 121.02116 93 ft 12 kts 239°
2026-02-22 07:19 14.51068 121.02037 93 ft 12 kts 241°
2026-02-22 07:19 14.51034 121.01975 93 ft 7 kts 240°
2026-02-22 07:20 14.51003 121.01921 93 ft 10 kts 240°
2026-02-22 07:20 14.50962 121.01846 93 ft 13 kts 240°
2026-02-22 07:20 14.50912 121.01757 93 ft 14 kts 240°
2026-02-22 07:20 14.50859 121.01660 93 ft 15 kts 240°
2026-02-22 07:21 14.50803 121.01560 93 ft 16 kts 240°
2026-02-22 07:21 14.50745 121.01456 93 ft 17 kts 240°
2026-02-22 07:21 14.50685 121.01347 93 ft 17 kts 240°
2026-02-22 07:21 14.50623 121.01237 93 ft 18 kts 240°
2026-02-22 07:22 14.50559 121.01122 93 ft 18 kts 240°
2026-02-22 07:22 14.50494 121.01006 93 ft 18 kts 240°
2026-02-22 07:22 14.50455 121.00935 93 ft 3 kts 240°
2026-02-22 07:22 14.50439 121.00907 93 ft 5 kts 241°
2026-02-22 07:23 14.50433 121.00864 93 ft 7 kts 292°
2026-02-22 07:23 14.50474 121.00834 93 ft 7 kts 335°
2026-02-22 07:23 14.50503 121.00807 93 ft 4 kts 293°
2026-02-22 07:23 14.50510 121.00770 93 ft 5 kts 279°
2026-02-22 07:24 14.50514 121.00742 93 ft 2 kts 277°
2026-02-22 07:24 14.50516 121.00726 93 ft 2 kts 277°
2026-02-22 07:24 14.50516 121.00721 93 ft 0 kts 277°